Total_Precipitation_Accumulation
2.83 3.09 2.95 2.79 2.82 2.81 3.10 3.43 3.45 3.06 2.73 2.51 2.33 2.24 2.21 2.18 2.27 2.09 2.04 2.02 1.79 1.63 1.52 1.43 1.39 1.38 1.47 1.62 1.84 2.08 2.27 2.42 2.56 2.69 2.89 3.12 3.38 3.64
2.73 2.88 2.85 2.77 3.00 2.99 3.10 3.37 3.58 3.52 2.94 2.69 2.58 2.26 2.30 1.93 2.08 1.95 1.91 1.87 1.64 1.51 1.43 1.40 1.38 1.36 1.37 1.40 1.49 1.63 1.81 1.96 2.10 2.20 2.25 2.31 2.39 2.56
2.31 2.42 2.43 2.69 2.90 2.86 3.01 3.17 3.39 3.62 3.22 2.97 3.02 2.73 2.67 2.39 2.15 1.93 1.69 1.63 1.51 1.48 1.36 1.28 1.26 1.25 1.28 1.27 1.25 1.32 1.45 1.58 1.70 1.86 2.03 2.14 2.16 2.22
2.24 2.34 2.24 2.44 2.57 2.62 2.82 2.97 3.23 3.61 3.43 3.16 3.09 2.97 2.84 2.59 2.36 2.11 1.66 1.43 1.46 1.57 1.39 1.24 1.18 1.16 1.18 1.17 1.11 1.08 1.11 1.18 1.25 1.38 1.59 1.76 1.89 2.03
2.08 2.00 1.95 2.14 2.20 2.36 2.53 2.55 2.75 3.15 3.22 2.93 2.82 3.04 2.87 2.62 2.61 2.27 2.00 1.92 1.48 1.49 1.39 1.20 1.13 1.07 1.07 1.11 1.11 1.05 1.02 1.03 1.07 1.18 1.38 1.55 1.68 1.76
1.81 1.69 1.71 1.88 1.91 2.05 2.11 2.31 2.50 2.64 2.84 2.80 2.71 2.83 2.84 2.75 2.89 2.65 2.44 2.28 1.93 1.59 1.57 1.31 1.18 1.12 1.08 1.06 1.07 1.09 1.10 1.09 1.09 1.15 1.23 1.33 1.49 1.59
1.58 1.44 1.38 1.40 1.47 1.61 1.59 1.87 2.17 2.30 2.38 2.51 2.52 2.62 2.84 2.97 2.84 2.83 2.67 2.50 2.29 2.08 2.03 1.62 1.31 1.13 1.10 1.09 1.10 1.14 1.18 1.18 1.20 1.26 1.36 1.41 1.46 1.54
1.56 1.53 1.36 1.25 1.23 1.28 1.31 1.39 1.60 1.76 1.97 2.23 2.31 2.41 2.66 2.95 3.01 3.01 2.91 2.69 2.47 2.27 2.38 2.32 1.93 1.64 1.41 1.17 1.15 1.17 1.24 1.32 1.36 1.42 1.51 1.63 1.75 1.75
1.51 1.50 1.25 1.13 1.20 1.16 1.23 1.22 1.29 1.37 1.49 1.77 1.91 1.98 2.26 2.58 2.91 2.96 3.03 2.85 2.59 2.52 2.61 2.64 2.68 2.42 1.82 1.46 1.39 1.22 1.25 1.34 1.40 1.46 1.54 1.57 1.73 1.88
1.43 1.47 1.46 1.39 1.30 1.33 1.35 1.28 1.18 1.20 1.23 1.19 1.31 1.56 1.78 2.05 2.45 2.62 2.90 3.05 2.88 2.75 2.77 2.83 2.84 3.04 2.53 1.98 1.80 1.54 1.46 1.48 1.53 1.54 1.57 1.65 1.72 1.80
1.46 1.50 1.48 1.41 1.42 1.39 1.37 1.36 1.23 1.16 1.15 1.14 1.14 1.29 1.52 1.67 1.96 2.28 2.57 2.79 2.88 2.94 2.98 3.03 2.93 3.06 3.34 2.86 2.15 1.79 1.54 1.47 1.51 1.56 1.61 1.73 1.80 1.80
1.56 1.56 1.48 1.40 1.49 1.38 1.24 1.29 1.28 1.30 1.34 1.30 1.28 1.30 1.35 1.52 1.80 2.05 2.32 2.61 2.66 2.75 2.59 2.57 2.59 2.73 3.16 3.32 2.90 2.25 1.78 1.61 1.51 1.49 1.51 1.63 1.78 1.63
1.62 1.66 1.64 1.55 1.29 1.20 1.17 1.19 1.29 1.37 1.45 1.46 1.46 1.49 1.57 1.62 1.68 1.86 2.12 2.37 2.45 2.28 2.05 2.19 2.37 2.48 2.55 2.69 2.82 2.73 2.33 1.99 1.77 1.63 1.58 1.55 1.59 1.54
1.89 1.90 1.86 1.68 1.39 1.26 1.16 1.21 1.30 1.25 1.29 1.40 1.38 1.36 1.44 1.52 1.60 1.78 1.98 2.10 2.17 2.16 2.11 2.24 2.38 2.40 2.48 2.52 2.55 2.57 2.56 2.37 2.18 2.05 1.98 1.96 1.76 1.66
2.13 2.15 2.03 1.79 1.54 1.32 1.24 1.22 1.19 1.13 1.16 1.24 1.20 1.17 1.24 1.33 1.42 1.60 1.80 1.99 2.04 1.98 1.98 2.09 2.21 2.23 2.35 2.42 2.34 2.22 2.27 2.33 2.30 2.27 2.30 2.30 2.15 1.98
2.22 2.16 2.05 1.86 1.60 1.44 1.35 1.23 1.12 1.18 1.21 1.19 1.19 1.20 1.29 1.40 1.50 1.58 1.73 1.89 2.04 2.00 1.94 1.96 2.02 2.14 2.12 1.98 1.91 1.78 1.78 1.87 2.01 2.15 2.35 2.57 2.61 2.50
2.33 2.17 2.05 1.85 1.68 1.59 1.50 1.40 1.32 1.31 1.25 1.21 1.24 1.24 1.27 1.33 1.41 1.45 1.56 1.64 1.71 1.74 1.78 1.83 1.94 2.05 2.05 1.98 1.86 1.67 1.62 1.54 1.58 1.89 2.22 2.46 2.48 2.35
1.81 1.75 1.79 1.74 1.66 1.59 1.52 1.44 1.38 1.32 1.29 1.27 1.26 1.24 1.20 1.21 1.30 1.41 1.52 1.54 1.51 1.52 1.59 1.66 1.87 2.07 2.11 1.93 1.60 1.49 1.47 1.43 1.43 1.65 1.85 1.95 1.93 1.82
1.50 1.53 1.50 1.49 1.47 1.44 1.42 1.35 1.28 1.27 1.31 1.32 1.27 1.27 1.26 1.27 1.30 1.41 1.53 1.57 1.51 1.48 1.58 1.72 1.87 1.99 1.97 1.75 1.50 1.25 1.27 1.31 1.44 1.62 1.71 1.69 1.59 1.45
1.39 1.44 1.44 1.43 1.41 1.42 1.43 1.37 1.36 1.37 1.40 1.41 1.39 1.39 1.41 1.42 1.44 1.46 1.54 1.59 1.55 1.53 1.61 1.71 1.74 1.77 1.78 1.68 1.59 1.42 1.19 1.24 1.33 1.46 1.54 1.56 1.46 1.31
1.49 1.53 1.54 1.53 1.51 1.54 1.53 1.50 1.49 1.45 1.41 1.45 1.45 1.45 1.43 1.45 1.51 1.55 1.61 1.69 1.63 1.57 1.53 1.53 1.60 1.71 1.84 2.02 1.90 1.62 1.42 1.30 1.34 1.38 1.46 1.58 1.57 1.50
1.44 1.49 1.53 1.56 1.57 1.56 1.52 1.48 1.49 1.46 1.43 1.42 1.40 1.41 1.44 1.42 1.46 1.54 1.58 1.61 1.58 1.52 1.46 1.48 1.67 1.87 1.95 2.01 1.89 1.73 1.65 1.56 1.50 1.44 1.37 1.30 1.33 1.35
1.41 1.47 1.48 1.46 1.45 1.41 1.34 1.31 1.37 1.42 1.44 1.45 1.42 1.41 1.41 1.39 1.39 1.48 1.54 1.56 1.57 1.59 1.60 1.66 1.74 1.83 1.88 1.90 1.93 1.87 1.73 1.65 1.64 1.62 1.53 1.32 1.03 0.90